﻿TIME_UTC_SECONDS;TIME_UTC_STR;AIR_TEMP;TRACK_TEMP;HUMIDITY;PRESSURE;WIND_SPEED;WIND_DIRECTION;
1519149320;20-Feb-18 17:55:20;83.60006;78.00008;60;30.322983185;2.6;127;
1519149381;20-Feb-18 17:56:21;83.80004;32;60;30.322097282;5.2;130;
1519149441;20-Feb-18 17:57:21;83.80004;32;60;30.320030175;6.5;65;
1519149501;20-Feb-18 17:58:21;83.89994;32;60;30.320030175;6.5;100;
1519149561;20-Feb-18 17:59:21;83.80004;32;59;30.318258369;7.2;104;
1519149621;20-Feb-18 18:00:21;83.80004;32;60;30.321211379;5.9;84;
1519149681;20-Feb-18 18:01:21;83.80004;32;60;30.320030175;6.5;120;
1519149741;20-Feb-18 18:02:21;83.80004;32;60;30.318258369;6.5;92;
1519149801;20-Feb-18 18:03:21;83.80004;32;60;30.319144272;7.9;103;
1519149861;20-Feb-18 18:04:21;83.69996;32;60;30.318258369;8.5;92;
1519149921;20-Feb-18 18:05:21;83.60006;32;60;30.318258369;4.6;122;
1519149981;20-Feb-18 18:06:21;83.60006;32;60;30.318258369;3.2;128;
1519150042;20-Feb-18 18:07:22;83.60006;32;61;30.319144272;5.9;124;
1519150102;20-Feb-18 18:08:22;83.60006;32;60;30.317077165;7.2;84;
1519150162;20-Feb-18 18:09:22;83.60006;32;61;30.317077165;6.5;131;
1519150222;20-Feb-18 18:10:22;83.69996;32;61;30.315010058;5.9;108;
1519150282;20-Feb-18 18:11:22;83.80004;32;61;30.315010058;6.5;109;
1519150342;20-Feb-18 18:12:22;83.89994;80.00006;61;30.311171145;7.2;142;
1519150402;20-Feb-18 18:13:22;84.00002;80.00006;61;30.312057048;6.5;72;
1519150462;20-Feb-18 18:14:22;84.09992;80.00006;60;30.313238252;2.6;96;
1519150522;20-Feb-18 18:15:22;84.2;80.00006;60;30.311171145;5.9;92;
1519150582;20-Feb-18 18:16:22;84.39998;80.00006;60;30.311171145;6.5;91;
1519150642;20-Feb-18 18:17:22;84.39998;80.00006;59;30.309104038;10.5;74;
1519150703;20-Feb-18 18:18:23;84.39998;80.00006;58;30.311171145;7.9;108;
1519150763;20-Feb-18 18:19:23;84.2;80.00006;59;30.309104038;4.6;106;
1519150823;20-Feb-18 18:20:23;84.2;80.00006;59;30.308218135;7.2;154;
1519150883;20-Feb-18 18:21:23;84.2;80.00006;59;30.308218135;3.9;198;
1519150943;20-Feb-18 18:22:23;84.2;80.00006;59;30.308218135;1.9;113;
1519151003;20-Feb-18 18:23:23;84.2;80.00006;59;30.308218135;3.9;172;
1519151063;20-Feb-18 18:24:23;84.30008;32;59;30.307036931;5.9;76;
1519151123;20-Feb-18 18:25:23;84.39998;80.00006;59;30.304083921;6.5;64;
1519151183;20-Feb-18 18:26:23;84.39998;80.00006;59;30.306151028;6.5;86;
1519151243;20-Feb-18 18:27:23;84.39998;32;59;30.305265125;5.9;193;
1519151303;20-Feb-18 18:28:23;84.39998;32;59;30.305265125;5.9;111;
1519151364;20-Feb-18 18:29:24;84.39998;32;59;30.303198018;6.5;85;
1519151424;20-Feb-18 18:30:24;84.39998;32;58;30.303198018;7.9;92;
1519151484;20-Feb-18 18:31:24;84.39998;32;59;30.304083921;3.2;150;
1519151544;20-Feb-18 18:32:24;84.50006;32;59;30.301130911;5.9;108;
1519151604;20-Feb-18 18:33:24;84.50006;32;59;30.300245008;5.2;102;
1519151664;20-Feb-18 18:34:24;84.50006;32;59;30.300245008;2.6;142;
1519151724;20-Feb-18 18:35:24;84.50006;32;59;30.300245008;3.9;116;
1519151784;20-Feb-18 18:36:24;84.39998;32;57;30.299063804;6.5;90;
1519151844;20-Feb-18 18:37:24;84.39998;32;57;30.296110794;9.2;84;
1519151904;20-Feb-18 18:38:24;84.39998;32;57;30.294043687;5.2;134;
1519151964;20-Feb-18 18:39:24;84.39998;32;57;30.296110794;5.9;140;
1519152025;20-Feb-18 18:40:25;84.50006;32;58;30.296110794;7.2;114;
1519152085;20-Feb-18 18:41:25;84.50006;32;57;30.295224891;5.2;131;
1519152145;20-Feb-18 18:42:25;84.59996;32;58;30.296110794;3.2;126;
1519152205;20-Feb-18 18:43:25;84.59996;32;58;30.296996697;5.2;80;
1519152265;20-Feb-18 18:44:25;84.70004;32;57;30.295224891;5.9;146;
1519152325;20-Feb-18 18:45:25;84.79994;32;57;30.293157784;5.2;144;
1519152385;20-Feb-18 18:46:25;84.79994;32;57;30.294043687;1.9;146;
1519152445;20-Feb-18 18:47:25;84.70004;32;57;30.293157784;3.9;106;
1519152505;20-Feb-18 18:48:25;84.79994;32;57;30.294043687;6.5;84;
1519152565;20-Feb-18 18:49:25;84.79994;32;57;30.294043687;4.6;108;
1519152625;20-Feb-18 18:50:25;84.79994;32;57;30.293157784;3.2;163;
1519152686;20-Feb-18 18:51:26;84.79994;32;57;30.294043687;6.5;74;
1519152746;20-Feb-18 18:52:26;84.90002;32;57;30.29197658;7.2;98;
1519152806;20-Feb-18 18:53:26;84.90002;32;57;30.29197658;5.9;130;
1519152866;20-Feb-18 18:54:26;84.90002;32;57;30.29197658;6.5;122;
1519152926;20-Feb-18 18:55:26;84.90002;32;57;30.291090677;2.6;121;
1519152986;20-Feb-18 18:56:26;84.90002;32;57;30.291090677;3.2;136;
1519153046;20-Feb-18 18:57:26;84.90002;32;57;30.291090677;7.2;80;
1519153106;20-Feb-18 18:58:26;84.79994;32;57;30.290204774;5.9;100;
1519153166;20-Feb-18 18:59:26;84.79994;32;58;30.291090677;3.9;165;
1519153226;20-Feb-18 19:00:26;84.79994;32;57;30.291090677;6.5;80;
1519153286;20-Feb-18 19:01:26;84.90002;32;57;30.28902357;2.6;136;
1519153347;20-Feb-18 19:02:27;84.90002;32;57;30.28902357;5.2;80;
1519153407;20-Feb-18 19:03:27;84.90002;32;56;30.291090677;3.9;157;
1519153467;20-Feb-18 19:04:27;84.99992;32;56;30.28902357;4.6;103;
1519153527;20-Feb-18 19:05:27;84.99992;32;56;30.28902357;3.2;136;
1519153587;20-Feb-18 19:06:27;84.90002;32;56;30.287251764;1.9;228;
1519153647;20-Feb-18 19:07:27;84.99992;32;56;30.288137667;1.9;191;
1519153707;20-Feb-18 19:08:27;84.99992;32;55;30.288137667;1.9;232;
1519153767;20-Feb-18 19:09:27;85.1;32;56;30.288137667;1.3;227;
